Regional Weather Roundup
Issued by NWS

Home | Current Version | Previous Version | Text Only | Print | Product List | Glossary On
Versions: 1 2 3 4 5 6 7 8 9 10 11 12 13 14 15 16 17 18 19 20 21 22 23 24 25 26 27 28 29 30 31 32 33 34 35 36 37 38 39 40 41 42 43 44 45 46 47 48 49 50
348
ASUS43 KIND 212309
RWRIN

WEATHER ROUNDUP FOR INDIANA
NATIONAL WEATHER SERVICE INDIANAPOLIS IN
600 PM EST TUE NOV 21 2017

NOTE: "FAIR" INDICATES FEW OR NO CLOUDS BELOW 12,000 FEET WITH NO
SIGNIFICANT WEATHER AND/OR OBSTRUCTIONS TO VISIBILITY.

* - STATION DOES NOT REPORT WEATHER SUCH AS PRECIPITATION OR FOG.

+ - STATION NOT QUALITY CONTROLLED BY THE NATIONAL WEATHER SERVICE.
    USE DATA WITH CAUTION...ESPECIALLY DEWPOINT AND RELATIVE
    HUMIDITY OBSERVATIONS.

INZ001>003-010>013-019-020-220000-
NORTHWEST INDIANA

CITY           SKY/WX    TMP DP  RH WIND       PRES   REMARKS
GARY /AIRPORT/ PTCLDY    36  18  48 NW10G30   30.05R WCI  28
KNOX *+        CLOUDY    34  32  93 W12       30.00R WCI  25
LA PORTE +     CLOUDY    34  28  76 NW14G22   30.01R WCI  25
MICHIGAN CITY+ CLOUDY    34  25  69 NW10G16   30.03R WCI  26
MONTICELLO +   CLOUDY    34  33  95 W8        30.02R WCI  27
RENSSELAER +   MOCLDY    34  25  69 W13       30.05R WCI  25
VALPARAISO     CLOUDY    37  26  64 NW13G20   30.03R WCI  29

$$

LMZ046-743>745-220000-
SOUTHERN LAKE MICHIGAN

STATION/POSITION TIME  TEMP    WIND        PRES    WAVE
                       AIR SEA DIR/SP/G            HT
                 (UTC) (F)     (DEG/KT/KT) (MB)    (FT)
MICHIGAN CITY    2240   36     300/ 24/ 27   N/A

$$

INZ004-005-014>016-021>024-220000-
NORTH CENTRAL INDIANA

CITY           SKY/WX    TMP DP  RH WIND       PRES   REMARKS
ELKHART        CLOUDY    36  34  93 W12       29.97R WCI  27
GOSHEN         CLOUDY    35  32  88 W12       29.96R WCI  27
LOGANSPORT +   CLOUDY    36  32  87 W9        30.03R WCI  29
PERU/GRISSOM   LGT RAIN  37  36  99 W15       30.00R WCI  27
ROCHESTER +    CLOUDY    37  36  93 W9        29.99R WCI  31
SOUTH BEND     CLOUDY    34  29  82 NW14G24   30.00R WCI  25
WARSAW +       CLOUDY    34  34 100 W8        29.96R WCI  27

$$

INZ006>009-017-018-025>027-220000-
NORTHEAST INDIANA

CITY           SKY/WX    TMP DP  RH WIND       PRES   REMARKS
AUBURN +       RAIN      37  34  87 W8        29.95R WCI  31
FORT WAYNE     LGT RAIN  40  36  86 W14G20    29.96R WCI  32
HUNTINGTON +   LGT RAIN  38  36  91 W7G16     29.97R WCI  33
KENDALLVILLE + LGT RAIN  35  34  96 W12       29.95R WCI  27

$$

INZ028-029-035-036-043>045-051>053-220000-
WEST CENTRAL INDIANA

CITY           SKY/WX    TMP DP  RH WIND       PRES   REMARKS
CRAWFORDSVL +  FLURRIES  35  33  94 NW16        N/A  WCI  24
GREENCASTLE +  CLOUDY    45  28  53 NW10G21   30.01R
LAFAYETTE      CLOUDY    34  33  96 W9        30.05R WCI  27
TERRE HAUTE    CLOUDY    44  23  43 NW14G28   30.04R

$$

INZ030>032-037>040-046>048-054>057-064-065-220000-
CENTRAL INDIANA

CITY           SKY/WX    TMP DP  RH WIND       PRES   REMARKS
CP ATTERBURY + CLOUDY    50  34  53 W5        29.98R
COLUMBUS       CLOUDY    48  32  53 W8        29.97R
FISHERS *+     CLOUDY    45  37  76 NW10G23   30.00R
FRANKFORT +    LGT RAIN  38  35  91 NW15      30.05R WCI  29
INDIANAPOLIS   CLOUDY    48  34  58 NW17      29.99R
-EAGLE CREEK   LGT RAIN  45  29  53 NW16G30   29.99R
KOKOMO +       LGT RAIN  37  35  92 W15       30.01R WCI  28
MARION +       LGT RAIN  41  35  79 W14       29.99R
MT COMFORT *+  CLOUDY    48  39  71 NW15      29.98R
SHELBYVILLE    CLOUDY    50  34  54 W9        29.97R
ZIONSVILLE +   CLOUDY    42  31  65 NW14G21   30.01R

$$

INZ033-034-041-042-049-050-058-059-220000-
EAST CENTRAL INDIANA

CITY           SKY/WX    TMP DP  RH WIND       PRES   REMARKS
MUNCIE         CLOUDY    45  35  68 NW16      29.97R
RICHMOND +     CLOUDY    46  34  61 W13       29.95R

$$

INZ060-061-067>069-081>083-085>088-220000-
SOUTHWEST INDIANA

CITY           SKY/WX    TMP DP  RH WIND       PRES   REMARKS
EVANSVILLE     PTCLDY    53  36  52 W7        30.01R
HUNTINGBURG +  PTCLDY    50  37  61 W5        29.99R
WASHINGTON +   CLOUDY    50  34  53 W7        30.00R

$$

INZ062-063-066-070>080-084-089>092-220000-
SOUTH CENTRAL AND SOUTHEAST INDIANA

CITY           SKY/WX    TMP DP  RH WIND       PRES   REMARKS
BEDFORD +      PTCLDY    52  32  46 W5        29.98R
BLOOMINGTON    PTCLDY    50  33  52 W7        29.98R
MADISON *+     PTCLDY    50  32  50 CALM      29.98R
NORTH VERNON + CLOUDY    48  34  57 W6        29.97R
SEYMOUR +      CLOUDY    52  36  54 W9        29.97R

$$





USA.gov is the U.S. government's official web portal to all federal, state and local government web resources and services.